Regional Weather Roundup
Issued by NWS

Home | Current Version | Previous Version | Graphics & Text | Print | Product List | Glossary On
Versions: 1 2 3 4 5 6 7 8 9 10 11 12 13 14 15 16 17 18 19 20 21 22 23 24 25 26 27 28 29 30 31 32 33 34 35 36 37 38 39 40 41 42 43 44 45 46 47
000
ASUS43 KDMX 202007
RWRIA

WEATHER ROUNDUP FOR IOWA
NATIONAL WEATHER SERVICE DES MOINES IA
300 PM CDT WED AUG 20 2014

NOTE: "FAIR" INDICATES FEW OR NO CLOUDS BELOW 12,000 FEET WITH NO
SIGNIFICANT WEATHER AND/OR OBSTRUCTIONS TO VISIBILITY.

* - THESE STATIONS ARE NOT NWS STATIONS...THUS NOT UNDER NWS
QUALITY CONTROL.  THEY ALSO DO NOT REPORT WEATHER SUCH
AS PRECIPITATION OR FOG.

IAZ001>003-012>014-020>022-031>034-043>046-202100-
   NORTHWEST IOWA

CITY           SKY/WX    TMP DP  RH WIND       PRES   REMARKS
CARROLL *      SUNNY     73  68  83 MISG      29.84F
CHEROKEE *     CLOUDY    72  70  94 S9        29.81F
DENISON *      SUNNY     77  70  78 SE8       29.83S
LE MARS *      PTSUNNY   72  70  94 S10G16    29.80S
ORANGE CITY *  SUNNY     75  68  78 S13       29.81S
SHELDON *      SUNNY     77  72  83 S14       29.81R
SIOUX CITY     LGT RAIN  74  71  91 SE8       29.80S
SPENCER        PTSUNNY   77  69  76 S10       29.83F
STORM LAKE *   SUNNY     72  72 100 S10       29.85R
$$

IAZ055>058-069>071-079>083-090>094-202100-
   SOUTHWEST IOWA

CITY           SKY/WX    TMP DP  RH WIND       PRES   REMARKS
ATLANTIC *     SUNNY     82  72  69 S16       29.84F HX  87
AUDUBON *      SUNNY     82  75  78 S10G16    29.86F HX  89
CLARINDA *     SUNNY     86  75  70 SE10G18   29.87S HX  95
COUNCIL BLFS * SUNNY     88  77  70 SE16G25   29.81F HX 100
CRESTON *      SUNNY     82  70  65 SE14G21   29.89S HX  86
HARLAN  *      SUNNY     82  73  74 S14G21    29.87F HX  88
LAMONI         MOSUNNY   84  72  67 S10G17    29.89F HX  89
RED OAK *      SUNNY     86  73  66 S15G22    29.84F HX  93
SHENANDOAH *   MOSUNNY   88  77  70 SE14      29.84F HX 100
$$

IAZ047>049-059>061-072>074-084-202100-
   CENTRAL IOWA

CITY           SKY/WX    TMP DP  RH WIND       PRES   REMARKS
AMES           CLOUDY    75  68  78 SE7       29.87F
ANKENY *       SUNNY     79  70  73 VRB7G14   29.86S HX  81
CHARITON *     SUNNY     82  72  69 S10       29.89S HX  87
DES MOINES     CLOUDY    81  69  67 S10       29.86F HX  84
GRINNELL*      CLOUDY    73  66  78 S8        29.89R
KNOXVILLE *    SUNNY     81  70  69 S8G16     29.87S HX  84
MARSHALLTOWN   LGT RAIN  72  68  87 S10       29.87F
PELLA *        CLOUDY    81  70  69 S8        29.89S HX  84
PERRY *          N/A     77  70  78 SE6       29.86F
$$

IAZ004>006-015-016-023>025-035-036-202100-
   NORTH CENTRAL IOWA

CITY           SKY/WX    TMP DP  RH WIND       PRES   REMARKS
ALGONA *       SUNNY     77  70  78 S8        29.85F
CLARION *      SUNNY     73  70  88 S5        29.86S
ESTHERVILLE    PTSUNNY   76  68  76 SE10      29.84S
FORT DODGE *   CLOUDY    72  70  94 S8        29.85F
MASON CITY     CLOUDY    77  67  71 CALM      29.88F
FOREST CITY *  SUNNY     79  68  69 SW6       29.86S HX  81
IOWA FALLS *     N/A     73  68  83 S8        29.87F
$$

IAZ007>011-017>019-026>030-037>042-050>054-066-202100-
   NORTHEAST IOWA

CITY           SKY/WX    TMP DP  RH WIND       PRES   REMARKS
CEDAR RAPIDS   LGT RAIN  73  69  87 S12       29.90R
CHARLES CITY * MOSUNNY   77  70  78 S6        29.87F
CLINTON *      CLOUDY    81  66  61 CALM      29.90R HX  83
DECORAH *      SUNNY     81  68  65 CALM      29.86F HX  83
DUBUQUE        PTSUNNY   82  65  56 CALM      29.86F HX  84
MONTICELLO *   SUNNY     81  68  65 S6        29.86S HX  83
OELWEIN *      MOSUNNY   79  68  69 CALM      29.88S HX  81
WATERLOO       CLOUDY    74  68  81 S8        29.86R
$$

IAZ064-065-067-068-078-202100-
   EAST CENTRAL IOWA

CITY           SKY/WX    TMP DP  RH WIND       PRES   REMARKS
DAVENPORT      CLOUDY    77  68  73 S10       29.91R
IOWA CITY      CLOUDY    73  69  87 S6        29.91R
MT. PLEASANT * CLOUDY    77  68  73 S12       29.90F
MUSCATINE *    MOSUNNY   77  66  69 S13       29.89S
QUAD CITIES    CLOUDY    77  70  79 SW8       29.89R
$$

IAZ062-063-075>077-085>089-095>099-202100-
   SOUTHEAST IOWA

CITY           SKY/WX    TMP DP  RH WIND       PRES   REMARKS
BURLINGTON     CLOUDY    77  70  79 S14       29.90F
FAIRFIELD *    SUNNY     75  70  83 S10G18    29.89F
FORT MADISON * SUNNY     79  72  78 S7        29.92S HX  82
KEOKUK *       SUNNY     79  72  78 S12       29.91F HX  82
OSKALOOSA *      N/A     79  72  78 S13       29.89S HX  82
CENTERVILLE *  SUNNY     82  73  74 S13       29.92F HX  88
OTTUMWA        CLOUDY    79  69  71 S10       29.87S HX  81
WASHINGTON *   SUNNY     75  72  88 CALM      29.92R
$$

ABBREVIATIONS USED IN REMARKS
   TC - TEMPERATURES IN CELSIUS
  WCI - WIND CHILL INDEX
   HX - HEAT INDEX
  VSB - VISIBILITY
$$



USA.gov is the U.S. government's official web portal to all federal, state and local government web resources and services.